Tracking 23760 objects as of 28-Oct-2021
HD Live streaming from Space Station
objects crossing your sky now

FALCON 9 R/B

Track FALCON 9 R/B now!
10-day predictions


NORAD ID: 42071
Int'l Code: 2017-014B
Perigee: 138.1 km
Apogee: 8,575.5 km
Inclination: 22.3 °
Period: 184.3 minutes
Semi major axis: 10727 km
RCS: Unknown
Launch date: March 16, 2017
Source: United States (US)
Launch site: AIR FORCE EASTERN TEST RANGE (AFETR)

Note: This is a ROCKET BODY
aabbcc
Your satellite tracking list
Your tracking list is empty




NASA's NSSDC Master Catalog

Two Line Element Set (TLE):
1 42071U 17014B   21300.67753072  .01795158 -61182-6  65982-3 0  9994
2 42071  22.3176  43.4501 3932493  20.2076 351.8276  7.81335670 57503
Source of the keplerian elements: AFSPC